Wind_Speed
42 43 43 43 42 42 42 41 40 38 35 34 32 31 29 29 28 29 29 29 29 30 30 29 27 26 27 27 28 29 30 31 32 33 35 36 37 38 39 39 39 39 38 38 38 40 41 42 42 43 43 44 45 45 46 47 48 48 49 49 50 51 51 52 52 52 52 51 51 52 51 52 53 54 55 55 56 58 59 60 62 63 64 65 66 67 69 70
38 38 39 39 39 38 37 36 35 33 31 30 29 28 28 29 28 28 29 28 28 29 29 27 26 25 25 26 27 28 30 31 33 35 36 37 38 39 40 41 42 43 43 43 43 43 43 44 45 45 46 46 47 47 48 49 49 50 50 52 53 54 54 54 54 55 56 55 56 57 57 57 57 58 58 59 59 60 61 62 63 64 65 67 68 69 70 71
35 36 36 36 36 35 33 32 30 29 27 27 27 28 28 28 28 28 28 28 27 27 25 25 24 24 24 25 26 27 29 31 33 35 36 38 39 40 40 41 42 44 45 45 46 46 46 46 47 47 48 48 49 50 50 51 51 51 52 53 54 55 54 54 54 55 57 58 59 61 62 63 63 64 64 64 64 65 65 66 66 67 67 68 70 71 72 74
34 34 34 34 33 32 30 29 27 26 26 26 27 28 28 28 28 27 27 27 26 25 24 23 23 23 24 25 26 27 28 30 32 34 36 37 39 40 41 42 43 44 44 45 45 46 47 47 48 48 49 50 51 52 53 54 54 54 55 56 57 58 57 58 58 58 60 61 62 63 65 66 67 68 67 67 68 69 71 71 71 72 72 72 73 74 75 76
32 33 33 32 31 29 28 26 26 25 26 26 27 27 27 27 27 26 25 24 23 23 23 23 22 22 23 24 25 26 27 28 30 33 34 36 38 39 41 42 43 44 45 46 46 47 48 49 50 51 52 53 54 55 55 57 57 58 59 59 60 61 61 63 64 64 65 66 67 68 68 69 70 70 70 71 72 73 75 75 75 76 76 77 77 78 79 80
31 32 32 31 29 27 26 26 25 25 26 26 26 26 26 26 25 23 21 21 21 21 21 21 21 22 23 25 26 27 27 29 31 33 35 36 38 40 41 42 44 45 46 47 49 50 51 52 53 54 55 56 56 57 58 59 59 59 60 61 60 61 63 65 67 68 69 70 71 72 72 73 73 74 75 77 78 78 79 79 79 79 80 81 81 82 83 83
31 31 30 29 28 27 26 25 25 25 25 25 25 25 24 23 21 19 18 19 19 20 21 22 23 25 27 29 29 30 31 32 34 36 37 38 40 41 43 44 45 46 48 49 51 52 53 54 55 56 57 58 59 59 60 61 61 61 62 63 63 63 64 65 67 69 71 72 74 75 75 76 77 78 79 81 82 82 82 82 82 83 83 84 84 85 85 86
31 30 29 28 27 26 25 25 25 25 24 24 24 23 21 18 17 18 18 18 20 21 23 25 28 30 31 32 33 34 35 37 38 39 40 41 43 44 45 46 47 49 50 51 52 53 54 55 56 57 58 60 60 61 62 62 63 64 65 66 67 67 68 69 69 70 71 72 74 75 77 78 79 80 82 83 84 84 84 85 85 86 86 87 88 88 89 89
31 30 28 27 26 25 24 24 24 24 23 23 23 21 18 18 20 22 22 22 24 26 28 30 32 34 35 36 37 38 39 41 42 43 44 45 46 48 49 50 51 52 53 54 55 55 56 57 57 58 59 60 60 61 62 62 64 64 65 67 68 69 70 70 71 73 73 74 75 76 77 78 79 80 82 84 84 85 85 86 87 87 88 89 90 91 91 92
30 28 27 26 25 25 24 24 24 24 23 24 23 21 19 21 25 26 27 28 30 31 33 34 36 37 38 39 40 41 42 43 45 46 47 48 49 50 51 52 53 54 54 55 55 55 55 56 56 56 56 57 57 57 58 59 60 61 62 64 65 67 68 69 71 73 74 75 77 77 78 79 81 81 83 85 85 86 87 87 88 89 90 91 91 92 93 94
27 25 25 25 24 24 24 24 23 23 23 23 24 23 22 22 25 27 29 31 32 34 35 36 38 38 39 41 42 43 45 46 48 49 50 50 51 51 52 52 53 53 53 53 53 53 53 53 52 52 52 52 52 53 54 54 55 57 58 59 61 62 64 66 68 70 72 74 76 77 79 80 81 83 84 86 86 87 88 89 90 91 92 93 93 94 95 96
25 24 24 24 24 25 25 24 23 23 23 24 25 26 27 27 27 29 31 32 34 35 36 38 39 40 42 43 45 47 47 48 49 49 50 50 50 50 50 50 50 51 51 51 50 50 49 49 48 48 48 48 49 50 51 52 53 54 56 56 58 59 60 63 65 66 68 70 72 74 75 77 79 82 83 84 86 87 88 89 90 91 92 93 94 95 96 97
24 23 24 25 25 25 24 24 23 23 25 27 28 29 30 31 32 33 34 35 36 37 38 39 41 42 44 45 47 47 47 47 48 48 48 48 49 49 49 49 49 49 49 48 47 47 46 46 46 46 47 48 49 50 51 52 54 55 56 57 58 59 59 62 64 65 67 68 70 71 72 73 75 79 80 81 82 84 85 86 87 88 89 90 91 92 93 94
24 24 24 25 25 25 24 24 24 25 27 29 30 31 32 33 34 35 36 37 38 39 40 41 42 43 44 45 46 46 46 47 47 47 47 47 48 48 48 48 48 47 46 45 45 45 45 46 46 47 49 50 51 52 53 55 56 58 59 59 61 62 61 64 66 66 68 69 70 72 72 73 74 77 79 79 80 81 82 83 84 85 86 87 88 89 90 91
24 24 24 25 25 25 25 25 26 26 27 30 31 33 34 36 37 38 39 39 40 40 40 41 42 43 44 44 45 45 45 46 46 46 46 46 47 47 47 46 45 44 44 44 44 45 46 47 48 50 51 53 54 55 56 58 59 61 62 62 64 65 64 65 68 69 70 71 72 73 74 74 75 77 79 79 80 81 82 83 84 85 85 86 87 88 89 90
23 24 24 25 25 25 26 26 27 28 29 30 32 34 35 37 38 38 39 39 39 39 40 41 42 43 43 44 43 43 44 45 45 45 45 45 45 45 44 44 43 43 44 44 45 47 48 50 51 53 55 56 57 58 59 60 62 63 64 64 65 67 66 66 68 70 70 71 72 73 74 74 74 76 78 78 79 80 81 82 82 83 84 85 86 86 87 88
23 23 24 25 25 26 27 28 29 30 31 32 34 35 35 35 36 36 36 37 38 39 40 41 42 42 42 42 42 42 43 44 44 44 45 45 44 43 43 43 43 44 45 46 48 49 51 53 55 56 57 59 60 61 61 62 62 63 65 65 64 65 66 65 66 67 68 68 70 70 71 72 72 73 74 75 77 77 78 79 79 80 81 82 82 83 83 84
22 23 24 25 25 26 27 28 29 31 32 34 34 34 34 33 34 34 36 37 38 39 40 41 41 40 40 40 40 41 42 42 43 43 43 43 42 42 43 43 44 45 47 49 51 53 55 56 57 58 59 60 61 61 61 62 61 61 62 62 61 61 62 62 61 62 63 64 65 65 66 67 67 67 69 71 72 73 74 74 75 76 76 77 78 79 79 80
21 22 24 25 25 26 27 28 30 31 32 33 33 33 32 33 34 36 37 38 38 39 39 39 39 38 39 39 39 40 41 41 42 42 41 41 42 43 44 45 46 48 50 52 54 56 57 58 59 60 60 60 60 60 59 58 57 56 56 56 56 56 55 56 56 56 57 58 60 60 61 62 62 62 65 67 67 68 69 70 71 72 73 73 74 75 76 76
22 23 24 25 25 26 28 29 30 31 31 31 31 32 33 34 35 36 37 37 38 38 38 37 37 37 38 38 38 39 40 40 40 40 40 41 42 44 45 47 49 51 53 54 56 57 58 59 59 58 58 57 56 55 54 53 52 51 51 51 51 52 52 53 53 54 54 55 57 58 58 60 60 60 63 64 65 66 67 68 69 70 71 72 73 74 75 76
23 23 24 25 26 27 28 28 29 30 30 30 30 31 32 34 35 36 37 37 36 36 36 36 36 36 37 38 38 38 38 38 38 39 41 42 44 46 48 49 51 53 55 56 57 58 57 57 57 56 54 52 51 50 49 49 49 49 49 49 49 50 50 51 51 52 53 53 55 56 58 58 58 60 61 62 63 65 66 67 68 69 70 70 71 71 72 73
22 23 24 26 27 27 27 27 28 28 28 29 30 31 32 33 34 35 35 35 35 35 35 35 35 36 36 37 37 36 36 37 38 40 42 44 46 48 50 51 53 54 56 56 56 56 55 54 53 51 49 48 48 47 47 46 46 46 47 47 47 48 48 49 50 50 50 51 52 54 55 54 55 57 57 57 59 60 60 61 61 62 62 62 63 63 63 63
23 24 26 27 27 27 27 27 27 27 27 28 29 30 31 32 33 33 34 34 34 34 34 35 35 35 35 36 36 36 37 38 40 42 44 46 48 50 51 53 54 55 55 55 54 53 52 50 48 47 46 46 45 45 44 44 44 44 44 45 45 46 47 47 48 48 48 48 49 50 50 49 50 50 50 50 51 51 51 51 52 52 52 52 52 52 52 52
24 25 27 27 27 27 27 27 26 26 27 28 29 30 31 32 32 32 32 32 32 33 34 34 34 34 34 35 36 37 38 40 42 44 46 48 49 51 52 53 54 54 53 53 52 50 48 46 45 44 44 43 43 43 43 43 43 43 44 44 45 45 45 45 46 46 45 45 44 45 45 44 44 44 43 43 44 44 44 43 44 44 43 43 43 43 43 43
24 26 27 27 27 27 27 26 26 27 27 28 29 30 31 31 31 31 31 31 31 32 33 33 34 34 35 36 37 38 40 42 43 45 47 49 51 52 53 53 52 52 51 50 48 46 44 44 43 42 42 42 42 42 42 42 42 43 43 44 44 44 44 43 43 42 42 41 40 40 40 39 38 38 38 38 38 37 37 37 38 38 38 38 38 38 39 40
25 26 27 27 27 27 27 27 28 28 28 29 30 31 31 31 31 31 31 31 31 32 33 33 34 35 36 37 38 40 42 44 46 47 49 50 52 52 52 51 50 49 48 46 45 44 43 42 42 41 41 41 41 41 41 41 42 42 43 42 42 41 40 40 39 38 37 37 36 35 35 34 34 34 34 33 34 34 34 35 36 36 36 37 37 38 38 39
26 27 27 27 27 28 28 29 29 29 29 30 30 30 30 30 30 30 30 31 32 33 33 33 34 35 37 38 40 42 44 46 48 49 50 51 51 51 50 50 49 47 45 43 43 42 42 41 41 41 41 40 40 41 41 41 42 42 42 41 40 39 38 37 36 36 35 35 34 33 33 34 33 34 35 34 34 35 36 35 35 35 36 37 37 37 37 38
28 28 28 27 28 28 29 29 29 29 29 29 30 30 30 30 30 30 31 31 32 33 33 34 35 37 38 40 42 44 46 48 49 50 51 51 50 50 49 48 46 44 43 42 42 41 41 40 40 40 40 40 40 41 41 42 42 42 42 41 40 38 37 37 36 36 36 36 36 36 36 36 35 35 37 38 36 36 38 37 36 35 35 36 37 37 37 38
29 29 28 28 28 29 29 29 29 28 29 29 30 31 31 30 30 30 31 31 32 34 34 35 37 39 40 42 44 46 47 49 50 51 50 50 50 49 48 46 44 42 42 41 41 40 40 40 40 40 40 41 41 42 42 43 43 43 43 42 41 39 39 38 38 38 38 38 39 39 39 39 38 35 36 40 39 37 37 37 37 38 39 40 40 40 40 41
30 29 28 28 28 29 29 29 28 28 28 30 31 31 31 30 30 30 31 32 33 35 36 37 39 41 43 45 46 48 49 50 51 50 49 49 49 49 46 43 42 41 41 41 40 40 40 40 40 40 41 41 42 43 43 44 44 44 43 42 41 40 40 40 40 39 39 40 41 41 41 42 41 37 34 37 41 41 39 37 38 40 43 44 45 44 44 45
31 30 28 28 29 29 29 28 28 28 29 30 31 30 30 30 30 31 32 33 34 36 37 39 41 43 45 46 48 50 51 51 50 49 49 49 49 47 44 42 41 41 40 40 40 40 40 40 40 41 41 42 43 44 44 45 45 45 44 43 42 41 41 41 42 42 41 42 43 42 42 43 43 41 35 34 39 43 42 41 41 42 44 46 48 48 48 49
32 30 28 29 29 29 29 28 28 29 30 31 30 29 29 30 31 32 33 34 35 36 38 40 43 45 46 48 50 51 51 50 50 49 49 49 47 44 42 41 40 40 40 40 40 40 40 40 41 41 42 43 44 45 45 46 46 45 45 44 43 42 41 42 42 43 44 45 46 46 45 45 45 43 39 35 38 43 45 46 46 46 47 49 51 51 52 54
31 29 29 29 30 30 29 28 29 30 31 30 29 29 29 30 31 32 33 35 36 38 40 42 44 46 48 50 51 51 51 50 49 49 49 48 45 42 41 40 40 40 39 39 40 40 40 41 41 42 43 44 44 45 46 46 47 46 46 45 44 42 41 41 42 43 44 46 49 51 51 50 49 47 42 39 40 43 46 48 49 51 52 53 54 55 56 58
30 28 29 29 30 29 29 29 30 31 30 29 28 29 30 30 31 32 33 35 37 39 42 44 46 48 50 51 51 51 50 50 50 49 48 45 43 41 41 41 40 40 39 39 39 40 40 41 42 43 44 44 45 46 46 47 48 48 48 47 46 45 43 42 43 43 44 45 48 53 55 56 55 52 48 45 45 46 47 49 51 53 55 55 56 57 59 61
28 28 29 30 29 29 29 30 30 30 28 28 28 29 30 30 31 32 34 36 39 41 43 45 47 49 50 51 50 50 50 50 50 49 46 44 42 41 41 41 40 40 40 40 40 40 41 41 42 44 44 45 46 47 47 48 49 50 50 50 49 48 47 46 45 46 46 45 47 53 57 59 60 59 54 51 51 51 51 52 54 56 57 58 59 60 62 63
28 29 30 30 29 29 30 31 30 28 28 28 29 29 30 30 31 33 35 38 40 42 45 47 49 50 50 50 50 50 50 50 49 47 44 42 41 41 41 41 41 40 40 41 41 41 42 42 43 44 45 46 46 48 49 49 50 51 52 52 51 50 50 49 47 48 48 47 47 51 57 62 63 61 60 58 57 55 55 56 58 60 60 60 62 63 64 65
28 30 30 29 30 30 31 30 28 27 27 28 29 29 29 30 32 34 37 39 41 44 46 48 49 50 50 50 50 50 50 49 48 45 43 42 42 42 42 41 41 41 41 42 42 42 43 44 44 45 46 47 47 49 50 51 51 51 52 53 52 51 52 52 51 50 50 48 48 50 56 63 65 62 61 61 61 60 58 60 62 62 62 63 65 66 66 68
29 30 29 30 30 31 30 28 27 27 28 28 29 29 30 31 33 35 38 40 43 46 48 49 50 50 49 49 49 50 49 48 46 44 42 42 42 42 42 42 42 42 42 43 43 44 44 45 47 47 47 49 49 50 51 53 54 54 54 54 53 52 52 52 52 53 52 49 48 48 53 64 69 65 62 63 63 62 61 63 65 65 65 66 67 69 69 70
29 29 29 29 30 30 29 27 27 27 28 29 29 29 30 32 34 36 39 41 44 47 48 49 49 49 49 49 49 49 48 46 45 43 42 42 41 41 41 41 42 42 42 43 44 45 45 45 47 48 48 49 50 50 50 53 55 56 56 56 55 55 53 51 51 54 54 51 50 47 47 61 72 66 62 65 64 63 63 65 68 68 67 68 69 70 71 71
29 30 30 30 29 29 28 27 27 28 29 29 29 30 31 33 35 37 40 43 45 47 48 49 49 49 48 48 48 47 47 45 44 43 42 42 42 42 42 42 42 42 43 43 44 45 46 46 47 48 49 49 50 51 51 52 54 56 57 57 57 56 55 52 51 54 56 55 55 50 44 58 73 67 61 65 64 63 64 66 69 69 69 70 70 70 71 72
30 30 30 29 28 28 27 27 28 29 29 28 29 31 32 34 36 39 41 43 45 47 48 49 48 48 48 48 47 47 46 45 44 43 42 42 42 42 42 43 43 43 44 45 46 46 47 47 48 50 51 51 51 51 52 53 55 57 57 57 57 56 55 52 50 51 55 57 60 56 47 56 72 68 63 66 64 63 65 67 69 70 71 71 71 71 72 72
30 30 30 29 27 27 28 28 29 29 28 28 30 31 33 35 37 40 42 43 45 47 48 48 48 48 47 47 47 46 45 44 43 43 42 42 42 43 43 43 44 44 45 45 46 47 48 48 48 51 53 54 54 53 53 55 57 59 59 59 58 56 55 55 52 51 52 54 59 58 51 56 68 69 68 69 65 63 66 67 68 70 72 73 72 73 73 73
31 30 28 27 27 28 29 29 29 29 28 29 31 32 34 36 38 40 42 44 46 47 47 47 47 47 47 47 46 45 45 44 43 42 42 42 41 42 42 43 43 43 44 45 45 47 48 48 47 49 52 55 56 55 54 55 58 60 61 62 60 58 57 57 56 54 52 53 57 57 54 56 63 67 69 70 66 64 67 67 68 70 72 74 74 74 75 75
30 28 26 26 27 29 29 29 29 29 29 30 31 33 35 37 39 40 42 44 46 47 47 47 47 47 47 46 46 45 44 44 43 42 42 42 41 41 41 41 41 42 42 43 44 46 48 49 48 48 51 53 54 54 54 54 56 59 61 62 61 60 58 57 57 56 54 54 56 58 57 56 59 64 68 68 65 64 66 68 69 70 72 74 76 76 76 76
27 25 26 27 29 29 29 29 29 29 29 31 33 34 36 38 39 40 43 45 46 46 47 47 47 47 47 46 46 46 45 45 45 44 43 43 43 43 42 42 42 42 43 43 44 46 48 50 50 50 52 53 54 54 54 55 57 59 61 62 60 60 60 59 59 59 56 53 53 59 60 56 57 65 69 67 65 65 67 69 70 71 73 74 76 76 76 77
25 27 28 29 28 29 29 29 29 29 30 32 34 36 37 38 39 41 43 45 46 46 46 47 47 47 47 47 47 47 47 47 47 47 46 46 45 45 45 45 45 45 45 45 45 45 48 51 52 52 54 55 55 55 55 55 57 60 63 62 60 59 60 61 61 62 62 56 52 59 63 56 55 65 70 68 68 68 69 70 71 73 74 76 76 75 75 77
27 29 29 28 28 29 29 29 29 30 32 34 35 37 37 38 40 42 44 45 46 46 46 47 47 47 47 47 47 48 48 49 49 49 49 48 48 48 48 48 47 47 47 47 46 46 47 50 51 52 53 55 54 54 54 54 56 60 63 63 60 59 59 60 61 64 66 62 56 59 64 60 57 63 66 67 68 69 70 71 72 73 75 77 77 76 76 77
29 29 28 28 28 29 29 29 30 32 34 35 36 37 38 39 41 43 44 45 45 46 46 47 47 48 48 48 48 49 49 49 50 50 51 51 50 50 51 50 50 50 49 49 49 47 46 48 49 50 51 53 53 51 52 53 55 59 63 63 61 59 58 58 60 64 68 66 62 61 62 63 64 66 65 66 69 69 70 72 72 73 76 78 78 77 78 79
29 28 27 28 28 29 30 31 32 34 35 36 37 37 38 40 42 43 45 45 45 45 46 47 48 49 49 49 49 50 50 50 50 51 52 52 53 52 53 53 53 53 52 52 51 50 48 47 48 47 47 51 52 50 51 52 54 59 63 64 62 60 58 58 60 64 67 67 65 65 62 61 66 68 66 65 68 70 70 71 72 74 77 78 78 77 78 80
27 27 27 28 29 30 30 32 33 35 36 37 37 38 39 41 43 44 45 45 46 46 46 47 48 49 50 50 50 51 51 51 51 51 52 53 54 55 55 55 56 55 55 55 54 54 51 49 49 47 45 48 50 50 51 53 56 61 64 65 64 61 59 60 61 65 67 66 66 67 64 61 63 67 66 65 67 68 69 70 71 73 77 78 77 77 79 81
27 27 28 29 30 30 32 33 35 35 36 37 38 39 41 43 44 45 46 46 46 46 46 47 48 49 50 51 52 52 52 52 52 52 53 54 55 56 57 57 58 58 59 58 57 57 56 53 51 49 46 47 50 50 51 54 58 63 65 66 66 64 61 62 63 66 69 69 68 67 66 64 64 65 65 65 67 68 68 70 72 75 78 80 79 80 81 82
27 28 29 30 31 32 34 35 36 36 37 38 39 40 42 44 45 46 46 46 46 46 47 47 48 50 51 52 53 54 53 54 54 54 55 56 56 57 59 60 60 61 62 62 60 59 59 57 55 53 50 49 51 52 51 54 59 64 67 67 67 66 64 63 64 66 70 72 71 69 69 69 68 67 66 66 67 69 71 72 75 79 81 81 82 84 85 86
Wind_Direction
229 233 236 239 241 243 244 244 245 246 248 250 252 256 261 263 265 268 270 271 271 271 271 269 266 264 261 258 256 253 252 251 251 254 257 258 259 261 262 263 264 265 265 263 262 263 264 265 265 264 263 261 261 261 263 264 263 263 264 264 262 263 263 262 261 260 259 259 260 260 259 259 260 261 262 263 264 263 263 263 262 261 260 259 258 257 257 256
228 231 234 236 238 239 240 241 242 243 245 249 253 257 260 262 265 267 268 269 269 269 269 268 267 265 263 261 260 257 255 254 254 254 256 258 260 262 263 264 264 264 264 264 264 265 266 267 268 268 268 266 265 265 265 266 266 266 266 267 267 267 267 267 267 265 262 260 260 261 260 258 257 257 257 257 258 259 260 260 261 261 261 261 261 260 260 259
226 229 231 233 235 236 237 239 240 242 246 250 253 256 259 262 264 266 267 268 267 265 265 265 267 266 265 265 265 264 262 259 258 257 258 259 260 262 263 264 265 266 267 268 268 268 268 268 268 269 268 268 268 268 268 268 268 267 267 268 269 268 268 267 266 265 264 264 263 263 263 261 260 259 258 258 258 258 258 258 258 258 259 260 261 261 261 261
225 227 229 231 233 234 236 238 241 244 248 251 253 255 258 260 262 263 264 265 263 261 260 262 266 268 269 269 268 268 266 265 264 262 262 262 263 264 264 265 266 268 269 270 270 270 270 270 270 270 269 269 269 269 270 270 270 269 268 267 267 267 266 265 263 262 262 263 263 263 263 263 263 262 262 262 262 262 261 260 260 259 259 260 260 261 261 261
225 227 229 231 232 234 236 239 242 246 248 250 252 255 257 260 262 263 262 261 260 259 260 262 267 272 274 274 273 271 271 271 270 269 268 268 268 268 268 268 269 269 270 270 270 270 270 270 269 269 269 269 269 270 270 271 271 271 270 269 268 268 267 266 265 264 263 264 264 264 263 264 264 263 263 264 266 266 265 264 263 263 262 262 262 262 262 262
225 228 230 231 232 234 237 240 243 245 247 250 252 254 256 259 262 264 262 259 259 261 266 269 271 275 277 278 277 275 274 274 272 271 271 270 270 269 269 270 270 270 271 271 271 271 271 271 270 270 269 269 270 270 270 271 271 270 270 270 270 270 269 268 267 267 266 266 266 266 265 265 264 264 264 266 267 268 268 267 266 266 265 265 264 264 264 264
226 229 231 232 233 234 237 241 244 245 247 250 251 253 255 257 260 264 266 265 266 270 275 274 272 273 275 277 277 276 276 274 272 271 271 271 271 271 271 272 272 273 273 273 273 273 272 272 272 272 271 271 271 271 271 271 271 270 270 270 270 270 270 269 269 268 267 267 267 267 267 267 266 266 266 268 269 269 269 269 268 268 267 267 266 266 265 265
226 230 232 234 236 236 238 241 244 246 248 249 250 252 253 253 255 258 261 264 267 268 267 264 264 266 269 271 272 273 273 274 274 274 274 275 275 276 276 276 276 276 277 277 276 276 276 275 275 275 274 274 273 273 272 272 272 271 270 270 270 270 270 270 269 269 268 268 268 267 267 267 267 267 268 268 268 269 269 269 269 268 268 268 267 267 267 267
227 231 233 235 238 239 239 241 244 246 247 247 248 249 246 243 246 248 249 251 254 255 255 256 259 262 264 267 269 270 272 273 274 276 276 277 278 279 279 279 280 280 280 280 280 280 279 279 278 278 277 276 275 275 274 273 272 272 271 271 270 270 269 269 268 268 268 268 268 268 268 268 267 267 267 268 268 268 268 268 268 268 268 268 268 268 268 267
229 231 234 235 237 239 240 241 243 244 245 247 249 249 244 240 242 245 247 248 250 252 254 257 260 263 266 269 271 272 274 276 278 279 280 281 281 282 282 283 283 284 284 284 284 283 283 282 281 280 279 278 277 276 275 274 273 273 272 271 271 270 270 269 268 268 267 267 267 267 267 267 267 268 268 268 268 268 268 268 269 269 269 269 269 269 269 269
230 233 234 235 236 237 239 239 240 241 245 250 253 256 255 252 250 251 252 253 254 257 259 262 266 269 272 274 276 278 280 281 282 283 284 284 284 285 285 286 287 287 287 286 286 286 285 284 283 282 281 281 280 279 278 277 276 275 274 273 272 272 271 270 270 269 268 268 268 267 267 267 268 268 268 268 268 268 268 269 269 269 269 269 269 269 269 269
232 234 234 234 235 236 238 237 238 238 240 246 252 256 258 259 258 258 257 258 260 262 265 268 270 274 277 279 281 282 283 283 284 285 285 286 287 287 287 288 289 288 288 288 287 286 286 285 284 283 282 281 281 280 279 279 278 277 276 275 274 273 273 272 271 271 271 270 269 269 269 269 269 269 268 268 269 269 269 269 269 269 269 269 270 270 270 270
231 232 232 233 234 235 237 237 237 235 236 241 246 249 252 255 256 257 260 263 266 268 271 273 276 279 281 282 282 283 284 284 284 285 286 288 289 289 290 290 289 288 288 288 287 286 285 284 284 283 282 282 281 280 280 279 279 278 277 276 275 275 274 274 273 272 272 272 271 271 271 270 270 270 270 270 270 270 270 270 270 270 270 270 270 271 271 271
231 232 231 231 232 233 236 238 239 237 237 240 244 248 252 255 257 260 263 267 270 272 275 278 280 281 282 282 283 284 285 285 285 286 288 289 290 290 291 290 290 289 289 288 287 286 285 285 284 284 283 283 282 282 281 281 280 279 279 278 277 276 275 275 275 274 274 273 273 273 272 272 271 271 272 272 272 272 271 271 271 271 271 271 271 271 271 271
232 232 231 230 231 232 234 238 242 244 244 245 247 251 254 257 259 262 265 268 272 276 279 280 281 282 283 283 284 285 285 286 286 287 288 289 290 291 291 291 290 290 289 288 288 288 287 287 287 286 286 286 285 284 284 283 283 282 281 280 280 279 278 277 277 277 276 276 276 275 275 274 273 273 273 273 273 273 273 273 273 273 273 273 272 272 272 272
233 232 231 230 231 233 235 239 243 247 249 251 252 254 256 259 262 265 268 273 276 278 280 281 282 283 284 284 284 285 285 286 288 289 290 291 291 292 291 291 290 290 290 290 289 289 289 289 288 288 288 288 287 286 286 285 285 284 284 283 282 282 281 280 279 279 279 278 278 278 277 277 276 276 276 276 276 275 275 275 275 275 275 275 275 275 275 275
232 231 231 231 232 234 238 240 243 247 250 253 255 258 261 264 268 271 275 277 278 279 281 282 283 284 283 283 284 284 286 288 290 291 292 293 293 292 291 291 291 291 291 291 291 290 290 290 290 290 290 290 289 289 288 287 286 286 285 285 284 283 283 283 282 281 281 280 280 280 280 279 279 279 279 278 278 278 278 278 278 278 278 278 278 278 278 278
231 231 231 232 235 237 240 243 246 249 252 254 258 262 267 272 275 278 279 279 280 281 283 283 283 283 283 284 285 286 288 290 292 292 293 293 292 292 292 292 292 292 292 292 292 291 292 292 292 292 292 292 291 290 289 289 288 287 286 286 285 285 285 284 283 283 282 282 282 281 281 281 281 281 280 280 280 280 280 280 280 279 279 279 279 279 279 279
232 232 233 235 237 240 242 245 248 251 255 259 264 269 274 277 278 279 279 280 282 283 283 283 284 284 284 285 287 289 290 292 292 293 293 292 292 293 293 293 293 293 293 293 293 293 294 294 294 294 293 292 291 291 290 289 288 287 287 286 286 286 286 285 285 284 283 283 283 283 282 282 282 282 281 281 281 281 280 280 280 280 280 279 279 279 279 279
233 235 237 240 242 244 247 250 254 257 262 266 270 274 276 277 277 278 280 281 283 283 284 284 285 286 287 288 290 291 292 292 293 293 292 292 293 294 294 294 294 293 293 294 294 295 295 294 294 294 293 292 292 291 291 290 290 290 290 290 289 289 288 288 287 286 286 285 285 284 283 283 283 282 281 281 281 281 281 280 280 280 280 280 279 279 279 279
239 241 243 246 248 250 253 257 260 264 268 272 274 275 275 276 276 278 281 283 283 284 285 285 286 288 290 291 292 292 292 292 293 293 293 293 294 294 294 294 294 294 295 295 295 295 295 295 295 294 294 294 293 293 293 294 294 294 293 293 292 292 291 290 289 289 288 288 287 286 285 285 285 283 283 283 282 282 281 281 281 281 280 280 280 280 280 280
244 246 248 251 253 256 260 263 266 270 273 274 275 274 275 276 278 280 282 284 285 285 286 288 290 291 292 292 293 293 293 293 293 293 293 294 294 294 294 294 295 296 296 296 296 296 296 296 296 296 296 296 296 296 296 296 296 295 295 295 295 294 294 293 292 292 291 291 290 289 288 288 287 286 286 285 284 284 284 283 283 283 283 282 282 282 282 283
247 249 252 255 259 263 267 269 272 274 275 275 276 277 278 280 282 283 284 285 287 288 289 291 292 293 293 293 293 293 293 293 293 294 295 295 295 295 296 297 297 298 298 297 297 297 297 297 297 297 297 297 297 297 297 298 298 298 298 298 298 298 297 297 297 296 295 294 294 293 292 292 291 290 290 289 288 288 288 288 288 288 288 288 288 288 288 288
251 253 256 261 265 269 272 274 276 277 277 278 280 282 283 285 286 286 287 288 289 290 291 293 294 294 294 293 293 293 293 294 295 296 296 296 297 298 298 299 299 299 299 299 299 299 298 298 298 298 298 298 298 299 300 301 301 302 302 302 302 302 301 301 300 300 299 298 298 297 297 297 296 296 296 295 295 295 295 295 295 294 294 293 293 292 291 291
257 258 261 264 268 273 278 281 281 280 282 284 286 286 287 288 288 288 289 290 291 292 293 294 294 294 294 293 294 294 295 296 297 297 298 299 300 300 301 301 300 300 300 300 299 299 299 299 299 299 299 300 301 302 303 304 304 305 305 305 304 304 304 303 303 303 302 302 302 301 302 302 302 303 302 302 301 301 300 300 298 297 297 297 297 297 298 298
262 264 266 268 273 279 283 285 284 285 287 289 289 289 289 289 289 290 290 292 293 293 294 294 294 294 294 295 296 297 297 298 298 299 300 301 302 302 302 302 302 302 301 301 300 300 300 301 301 301 301 302 303 304 304 304 304 305 305 305 305 305 305 305 305 305 305 305 306 306 306 307 307 307 307 307 306 305 305 305 304 304 305 305 306 306 306 306
264 267 270 273 278 283 285 285 286 289 291 290 290 290 290 290 290 291 291 293 293 293 294 294 294 294 295 297 298 298 299 299 300 302 303 304 304 304 304 304 304 303 302 302 301 301 302 301 301 301 302 302 303 303 303 304 304 304 304 304 304 304 304 305 305 306 306 307 308 308 309 310 312 312 311 312 312 311 311 311 310 310 310 310 309 309 309 308
264 268 272 276 281 284 285 286 287 290 290 290 290 291 292 291 291 292 293 294 294 294 295 295 295 296 297 298 299 299 300 301 303 305 306 306 306 306 306 306 305 304 303 303 302 302 302 301 301 301 301 302 302 303 303 303 303 303 302 302 302 302 303 304 305 307 308 309 311 311 312 314 316 317 316 314 316 315 313 312 310 310 308 307 306 305 304 303
264 268 272 277 281 284 284 285 288 289 288 289 290 292 292 292 292 294 295 295 295 296 296 297 297 298 299 300 300 301 302 304 306 307 308 308 308 308 308 307 305 304 304 303 302 302 301 300 300 300 301 301 302 302 302 302 301 300 300 300 301 302 303 305 307 309 310 312 313 314 314 314 315 319 317 314 315 315 312 310 310 310 308 307 305 304 303 302
265 269 273 277 281 282 283 285 288 288 288 290 292 293 292 292 294 295 296 295 296 297 298 299 299 300 301 302 303 304 306 308 309 309 310 309 309 309 308 306 305 304 303 302 301 301 300 300 300 300 300 301 301 300 300 299 299 299 299 300 301 303 305 306 308 309 311 312 312 312 312 312 311 314 314 311 312 312 309 308 307 308 307 305 304 304 304 304
265 270 275 279 281 282 283 285 286 288 290 292 293 292 292 294 295 296 295 296 297 298 299 300 301 302 303 304 306 307 309 310 310 311 311 310 310 309 307 306 305 303 302 301 301 300 300 299 299 300 300 299 299 299 299 299 299 299 300 301 302 304 306 307 308 308 309 309 308 306 307 306 306 308 310 308 307 305 305 305 304 303 302 301 302 302 303 302
265 271 276 279 280 281 283 284 287 290 292 292 292 291 292 294 295 295 295 297 298 299 300 302 303 304 305 306 308 310 311 311 312 312 312 311 310 308 307 306 304 303 302 301 300 300 299 299 299 298 298 298 298 299 299 299 299 300 300 301 302 304 305 306 306 306 306 306 305 303 302 301 301 303 305 304 302 299 300 302 302 301 299 299 300 301 301 301
266 272 276 278 278 280 282 285 289 291 291 291 290 292 294 296 297 296 297 299 300 301 302 303 304 306 307 309 310 312 312 313 313 313 312 311 310 308 307 305 304 302 301 301 300 300 299 298 298 297 297 297 297 298 298 299 299 299 299 300 300 301 302 301 302 302 303 304 303 302 301 300 299 300 302 302 298 296 297 299 300 299 299 299 300 301 301 301
268 273 275 276 277 279 283 287 290 290 290 290 291 294 297 298 298 298 299 300 301 302 304 305 306 308 310 311 313 314 315 315 315 314 313 311 310 308 307 306 304 302 301 300 300 299 298 297 297 297 296 296 296 296 296 297 297 297 297 298 298 299 298 297 298 297 298 301 301 300 300 300 299 300 302 302 299 297 297 298 298 298 298 300 301 301 301 301
269 272 273 274 276 279 284 287 289 289 289 291 294 297 298 298 298 300 301 302 303 304 305 306 308 310 312 314 315 316 317 317 316 315 313 311 310 308 307 306 304 303 301 301 300 299 298 297 296 296 296 296 296 295 295 295 296 296 296 297 297 298 297 296 296 295 296 298 298 298 299 299 299 301 303 303 301 300 300 300 299 298 299 300 300 300 300 301
269 270 271 273 276 280 284 287 287 288 290 293 297 299 299 299 301 301 302 303 304 305 307 309 311 313 315 317 318 318 318 318 317 316 314 312 310 309 308 307 305 303 302 301 301 300 299 298 297 296 296 296 296 296 295 295 295 295 295 295 296 297 296 296 296 295 295 297 298 298 298 297 298 300 302 302 301 301 301 300 299 298 299 300 299 299 300 301
267 268 270 274 277 282 285 286 287 288 292 296 298 300 300 301 302 302 303 304 305 308 309 312 314 316 318 319 320 320 319 319 317 316 314 313 311 310 309 308 306 305 303 302 302 301 300 300 299 298 297 297 297 297 296 296 296 295 295 295 296 296 296 296 296 295 295 297 298 298 298 297 296 298 299 299 300 301 301 299 298 298 299 299 299 300 300 301
265 267 271 275 279 282 284 285 287 290 294 297 298 299 301 302 302 302 304 305 308 310 312 314 317 319 320 321 321 321 321 320 318 317 315 313 312 311 311 310 309 307 306 305 304 303 303 302 302 301 300 300 300 299 299 299 298 298 297 298 298 298 297 297 298 297 297 297 296 296 297 296 295 296 298 298 299 300 300 299 298 299 299 299 300 300 300 301
264 267 272 276 280 282 284 285 288 292 295 297 298 299 301 302 302 303 305 308 310 312 314 317 319 320 321 321 322 323 322 321 319 317 315 314 313 312 312 311 311 310 309 308 307 306 305 304 304 303 303 302 302 301 301 300 300 299 299 299 300 299 299 300 301 300 300 299 297 296 297 296 293 294 297 297 297 298 299 299 298 299 299 299 299 300 300 301
264 268 273 277 279 281 284 287 290 294 297 298 299 300 301 302 303 305 308 310 312 315 317 318 320 320 321 322 323 324 324 323 321 318 316 315 314 314 313 313 312 312 311 310 310 309 308 308 307 306 305 305 304 304 303 302 301 300 299 300 300 300 301 302 304 303 302 302 300 298 300 297 293 293 296 295 295 297 298 298 298 299 299 299 299 300 301 302
264 270 275 277 278 281 284 288 292 295 298 298 298 299 300 302 304 307 310 312 315 316 318 319 320 320 321 322 323 325 326 326 324 322 319 317 316 315 314 314 314 314 314 313 313 312 312 312 312 310 309 308 307 307 307 305 303 302 300 300 300 300 302 304 305 303 303 303 301 301 303 298 294 296 297 295 296 299 299 299 299 300 300 300 301 302 302 304
267 272 276 277 279 282 284 288 293 296 297 296 297 299 300 302 306 309 312 314 316 317 318 319 319 320 321 322 323 325 326 327 327 326 323 320 318 317 316 316 316 316 316 315 315 315 314 315 315 314 312 311 310 310 310 308 306 305 303 302 303 304 306 307 307 305 304 303 301 302 304 298 295 299 300 298 301 302 301 301 301 301 301 302 303 303 304 305
269 273 275 277 279 282 285 290 294 295 295 295 297 298 300 304 308 311 314 315 316 317 317 318 318 320 320 321 323 324 325 327 328 328 327 325 323 321 319 318 318 317 317 316 316 315 314 314 315 314 313 312 312 313 313 311 309 307 305 305 306 308 309 309 308 307 306 303 302 303 302 298 299 301 300 300 304 305 303 302 303 303 303 303 304 304 305 306
271 274 275 275 277 281 286 291 293 293 293 295 296 298 302 306 310 312 314 316 316 317 317 317 318 319 320 320 321 322 324 325 326 327 327 327 326 325 324 323 322 321 320 320 320 319 317 316 316 315 312 311 311 312 312 311 308 307 305 305 307 309 309 309 308 307 307 306 307 305 303 303 305 302 299 302 306 305 304 304 304 304 304 304 304 305 306 306
270 271 270 272 277 282 287 289 290 292 293 294 296 300 304 308 311 313 315 315 316 316 316 317 317 318 319 320 320 322 322 323 324 325 326 326 327 327 327 327 326 326 327 327 327 326 324 323 322 321 317 315 313 312 312 310 308 307 306 307 310 311 311 311 311 309 307 308 310 307 304 309 310 303 301 305 307 306 305 304 305 304 304 303 303 305 306 306
265 266 269 274 278 282 285 287 289 291 292 293 297 302 306 309 311 313 314 315 315 315 315 316 317 318 319 320 321 322 323 324 324 325 325 325 326 326 326 327 327 327 328 328 329 330 329 327 327 326 323 321 320 319 317 315 313 310 309 310 312 314 314 315 314 311 309 310 312 308 305 310 309 303 304 308 308 307 306 306 306 306 305 304 304 306 306 306
264 267 272 276 279 282 285 287 289 289 290 294 299 303 307 309 311 313 314 314 315 315 315 316 317 318 319 320 321 323 324 324 324 324 324 324 324 324 324 325 325 325 326 326 327 329 329 328 329 329 326 324 324 323 322 320 318 314 313 314 316 317 318 318 318 314 311 313 314 310 308 311 308 304 306 309 307 307 307 307 307 307 306 305 305 307 307 306
265 269 273 277 280 283 285 286 287 287 290 295 301 305 307 309 311 312 313 314 314 314 315 315 316 318 319 320 322 323 324 324 324 323 323 322 323 322 322 322 322 323 323 323 324 325 326 326 328 330 329 325 325 326 324 323 321 317 316 318 321 322 323 323 321 317 314 316 316 313 313 314 310 307 309 309 307 308 308 308 308 307 305 305 306 307 307 306
266 270 273 276 279 281 282 284 285 287 292 298 302 305 307 309 311 312 313 314 314 314 315 315 316 318 319 320 321 322 323 323 323 323 322 321 321 321 320 320 320 320 320 321 321 321 323 323 324 328 329 325 324 326 325 323 321 318 317 319 321 323 325 324 321 317 316 317 316 314 315 316 312 311 312 311 310 310 310 309 309 308 306 305 307 308 307 307
267 270 272 275 278 279 280 282 284 289 295 300 303 305 306 309 311 312 313 314 314 314 314 315 316 317 318 319 320 321 322 322 323 323 322 322 321 320 319 319 318 318 317 318 318 319 320 321 320 323 325 322 321 322 322 322 319 315 315 317 318 321 323 323 321 318 316 316 315 315 316 316 313 312 313 312 311 311 311 310 310 308 306 306 308 308 307 307
266 269 272 275 276 277 279 281 286 292 298 301 303 305 307 309 311 312 313 314 314 314 314 315 315 316 317 318 319 320 321 321 322 323 322 322 321 320 320 318 318 317 316 316 316 316 317 318 319 320 321 319 317 317 318 318 315 312 312 313 315 318 320 320 319 317 316 315 315 315 316 315 312 311 312 312 311 310 310 310 309 307 305 306 307 307 307 307
266 268 271 273 274 276 279 283 289 294 299 301 302 304 307 309 310 312 313 314 314 314 314 314 315 315 316 317 318 319 320 320 321 322 322 322 322 321 321 320 319 318 317 316 315 315 315 316 317 317 318 318 315 315 316 315 312 309 309 310 313 315 317 317 316 315 314 313 313 314 315 313 311 310 310 309 309 309 309 309 308 305 304 306 307 307 307 306
Height
10704 10706 10707 10709 10710 10711 10712 10713 10714 10714 10715 10714 10715 10715 10715 10716 10716 10717 10717 10718 10718 10718 10717 10717 10718 10718 10718 10718 10718 10718 10718 10719 10719 10718 10718 10717 10717 10717 10716 10716 10715 10715 10715 10714 10713 10712 10711 10711 10711 10710 10710 10709 10708 10706 10705 10704 10703 10703 10702 10701 10699 10698 10698 10697 10696 10696 10696 10696 10693 10692 10692 10690 10689 10688 10687 10687 10686 10686 10685 10685 10684 10683 10683 10682 10681 10681 10680 10680
10702 10703 10705 10706 10707 10708 10709 10710 10711 10712 10712 10712 10712 10713 10713 10714 10714 10715 10715 10716 10716 10716 10716 10716 10715 10715 10715 10715 10716 10716 10716 10716 10716 10715 10715 10714 10714 10714 10713 10713 10712 10711 10710 10710 10709 10709 10708 10707 10707 10706 10705 10705 10703 10702 10701 10700 10699 10698 10697 10696 10694 10693 10693 10691 10691 10691 10689 10690 10688 10685 10685 10684 10682 10681 10680 10680 10679 10678 10678 10677 10677 10676 10675 10674 10674 10674 10672 10672
10700 10701 10702 10703 10704 10705 10706 10707 10708 10709 10709 10710 10710 10711 10711 10712 10713 10713 10714 10714 10714 10714 10714 10714 10713 10713 10713 10713 10713 10713 10713 10713 10713 10712 10712 10711 10711 10710 10710 10709 10708 10707 10706 10706 10705 10705 10704 10703 10702 10701 10700 10700 10698 10697 10696 10694 10694 10693 10692 10691 10689 10687 10687 10686 10685 10684 10683 10683 10682 10679 10678 10677 10675 10674 10673 10673 10672 10672 10671 10669 10669 10669 10668 10667 10666 10666 10664 10663
10698 10699 10700 10701 10702 10703 10704 10705 10706 10707 10707 10708 10708 10709 10710 10710 10711 10712 10712 10713 10712 10712 10712 10712 10711 10710 10710 10710 10710 10711 10711 10710 10709 10709 10708 10708 10707 10706 10705 10705 10704 10703 10702 10701 10701 10700 10699 10699 10698 10696 10695 10694 10693 10692 10691 10689 10688 10688 10686 10685 10683 10681 10681 10680 10678 10678 10676 10676 10675 10673 10671 10670 10668 10667 10666 10665 10665 10664 10662 10662 10661 10661 10660 10659 10658 10657 10656 10654
10696 10697 10698 10699 10700 10701 10702 10703 10704 10705 10706 10706 10707 10708 10708 10709 10710 10710 10711 10711 10710 10710 10710 10709 10709 10708 10708 10708 10708 10708 10708 10707 10706 10705 10705 10704 10703 10702 10701 10700 10699 10699 10698 10697 10696 10695 10694 10693 10692 10691 10690 10689 10687 10686 10685 10683 10682 10681 10679 10678 10677 10676 10675 10672 10671 10670 10669 10668 10667 10666 10664 10663 10661 10660 10659 10657 10657 10655 10653 10654 10653 10653 10652 10651 10650 10648 10647 10645
10694 10695 10696 10697 10698 10700 10701 10702 10703 10704 10704 10705 10706 10706 10707 10707 10708 10708 10709 10709 10708 10708 10708 10707 10707 10707 10706 10706 10706 10705 10705 10704 10703 10702 10701 10701 10699 10698 10697 10696 10695 10694 10693 10692 10691 10690 10688 10687 10686 10685 10684 10682 10681 10680 10678 10677 10675 10675 10672 10670 10670 10669 10668 10665 10663 10662 10660 10660 10658 10657 10656 10655 10654 10652 10650 10649 10647 10646 10645 10645 10644 10644 10642 10641 10640 10639 10637 10636
10692 10693 10694 10695 10697 10698 10699 10700 10701 10702 10703 10704 10704 10705 10705 10706 10706 10707 10707 10707 10706 10706 10706 10706 10705 10705 10704 10704 10703 10702 10702 10701 10699 10699 10698 10697 10695 10694 10693 10692 10691 10689 10688 10687 10686 10684 10683 10681 10680 10678 10677 10676 10675 10673 10671 10670 10668 10667 10665 10663 10662 10661 10659 10658 10656 10654 10653 10651 10649 10649 10647 10646 10645 10644 10642 10640 10638 10637 10636 10635 10634 10633 10632 10631 10630 10628 10627 10626
10690 10691 10692 10693 10695 10696 10698 10699 10700 10701 10701 10702 10703 10703 10704 10704 10705 10705 10705 10705 10705 10704 10704 10704 10703 10702 10701 10700 10700 10699 10698 10697 10695 10695 10694 10693 10691 10689 10688 10687 10686 10684 10683 10681 10680 10678 10676 10675 10673 10672 10670 10668 10667 10665 10664 10662 10660 10659 10658 10655 10654 10652 10651 10649 10648 10646 10644 10643 10641 10640 10639 10637 10636 10635 10633 10630 10628 10628 10627 10626 10624 10623 10622 10620 10619 10618 10616 10616
10688 10689 10690 10692 10693 10695 10696 10698 10698 10699 10700 10700 10701 10701 10702 10702 10703 10703 10703 10703 10703 10702 10702 10701 10700 10699 10698 10697 10696 10695 10694 10693 10691 10690 10689 10688 10686 10685 10683 10682 10680 10679 10677 10675 10673 10672 10670 10668 10666 10664 10663 10661 10659 10657 10656 10654 10652 10651 10650 10647 10645 10644 10642 10641 10639 10637 10636 10634 10633 10631 10630 10628 10626 10626 10624 10620 10619 10619 10617 10615 10614 10613 10611 10610 10609 10607 10606 10604
10686 10688 10689 10691 10692 10693 10695 10696 10697 10698 10698 10699 10699 10700 10700 10701 10701 10701 10701 10700 10700 10699 10699 10698 10697 10696 10695 10693 10692 10691 10690 10688 10687 10685 10684 10683 10682 10680 10678 10676 10675 10673 10671 10669 10666 10665 10663 10661 10659 10657 10655 10653 10651 10649 10647 10646 10644 10642 10641 10639 10637 10635 10634 10632 10630 10628 10627 10625 10624 10622 10621 10619 10617 10616 10614 10611 10610 10609 10607 10605 10603 10602 10601 10599 10598 10596 10595 10593
10685 10687 10688 10690 10691 10692 10693 10695 10696 10696 10697 10697 10698 10698 10698 10699 10699 10698 10698 10698 10697 10696 10696 10695 10694 10692 10691 10690 10688 10687 10686 10684 10682 10680 10679 10678 10676 10675 10673 10671 10669 10667 10664 10662 10660 10658 10656 10654 10652 10650 10648 10646 10644 10642 10640 10639 10637 10635 10633 10632 10630 10628 10626 10623 10621 10619 10618 10616 10614 10613 10612 10610 10608 10606 10603 10601 10600 10598 10597 10595 10593 10592 10591 10589 10587 10585 10584 10582
10685 10686 10687 10688 10690 10691 10692 10693 10694 10695 10695 10696 10696 10696 10696 10696 10696 10696 10695 10695 10694 10693 10692 10691 10690 10689 10687 10686 10684 10683 10682 10680 10678 10676 10674 10673 10671 10669 10668 10666 10663 10661 10659 10656 10654 10652 10650 10648 10646 10644 10642 10640 10638 10636 10634 10632 10630 10628 10626 10625 10622 10621 10619 10615 10613 10611 10609 10607 10605 10604 10603 10601 10599 10594 10593 10592 10590 10588 10587 10585 10583 10582 10580 10578 10577 10575 10573 10571
10684 10685 10686 10687 10688 10689 10691 10692 10692 10693 10694 10694 10694 10694 10694 10694 10694 10693 10693 10692 10691 10690 10689 10688 10687 10685 10684 10682 10680 10678 10677 10676 10674 10672 10670 10668 10666 10664 10662 10660 10658 10656 10654 10651 10649 10647 10645 10643 10641 10639 10636 10635 10632 10630 10628 10625 10623 10621 10619 10618 10615 10613 10612 10608 10605 10604 10601 10599 10596 10595 10594 10593 10590 10584 10582 10583 10580 10578 10576 10575 10573 10571 10570 10568 10566 10564 10562 10560
10683 10684 10685 10686 10687 10688 10689 10690 10691 10691 10692 10692 10692 10691 10691 10691 10691 10690 10690 10689 10688 10687 10686 10685 10684 10682 10680 10678 10676 10674 10672 10671 10670 10668 10666 10664 10662 10659 10657 10655 10653 10650 10648 10646 10644 10642 10639 10637 10635 10633 10631 10628 10626 10624 10622 10619 10616 10614 10611 10610 10606 10605 10606 10600 10597 10596 10593 10590 10588 10586 10584 10584 10582 10576 10573 10573 10570 10569 10567 10565 10563 10561 10559 10557 10555 10554 10551 10550
10682 10683 10684 10685 10686 10687 10688 10688 10689 10689 10690 10690 10689 10689 10689 10688 10688 10687 10687 10686 10685 10684 10683 10682 10680 10678 10676 10674 10672 10670 10668 10666 10665 10663 10662 10660 10657 10655 10652 10650 10647 10645 10643 10641 10639 10636 10634 10632 10629 10627 10624 10622 10620 10617 10615 10612 10609 10606 10603 10603 10598 10595 10597 10594 10589 10587 10584 10582 10579 10577 10575 10574 10572 10567 10565 10564 10561 10559 10557 10555 10553 10551 10549 10547 10545 10543 10541 10539
10680 10681 10682 10683 10684 10685 10686 10686 10687 10687 10688 10687 10687 10687 10686 10686 10685 10685 10684 10683 10682 10681 10679 10678 10676 10674 10672 10670 10668 10666 10664 10662 10660 10659 10657 10655 10652 10650 10647 10645 10643 10640 10638 10636 10633 10631 10628 10625 10623 10620 10618 10615 10612 10610 10608 10605 10601 10598 10595 10594 10592 10586 10586 10586 10581 10577 10575 10574 10570 10567 10565 10564 10563 10559 10556 10554 10551 10549 10546 10544 10543 10540 10538 10536 10534 10532 10530 10528
10678 10679 10680 10681 10682 10683 10684 10684 10685 10685 10685 10685 10684 10684 10683 10683 10682 10682 10681 10680 10678 10677 10675 10674 10672 10670 10668 10666 10665 10663 10660 10658 10656 10654 10652 10649 10647 10645 10643 10640 10638 10636 10633 10630 10627 10625 10622 10619 10616 10614 10611 10608 10605 10602 10600 10597 10594 10591 10586 10584 10583 10579 10576 10576 10573 10569 10566 10564 10561 10558 10556 10553 10553 10551 10547 10544 10541 10539 10536 10534 10533 10530 10528 10526 10523 10521 10519 10516
10677 10678 10679 10680 10681 10681 10682 10682 10682 10682 10682 10682 10681 10681 10681 10680 10679 10679 10677 10676 10674 10673 10671 10670 10668 10666 10664 10662 10661 10659 10657 10654 10652 10649 10647 10645 10642 10640 10638 10636 10633 10630 10628 10624 10621 10619 10615 10612 10610 10607 10604 10601 10598 10594 10592 10589 10586 10584 10580 10576 10574 10571 10568 10566 10565 10562 10558 10556 10552 10550 10548 10544 10544 10543 10538 10534 10532 10530 10527 10525 10523 10521 10518 10516 10514 10511 10509 10506
10676 10677 10677 10678 10679 10679 10679 10680 10680 10680 10679 10679 10679 10678 10678 10677 10676 10675 10673 10672 10671 10669 10667 10666 10664 10662 10660 10658 10657 10655 10653 10650 10648 10645 10643 10640 10638 10636 10633 10631 10628 10625 10622 10619 10615 10612 10609 10606 10603 10600 10597 10594 10591 10587 10584 10581 10578 10576 10573 10570 10567 10564 10562 10558 10556 10554 10551 10548 10544 10542 10541 10537 10536 10535 10530 10526 10524 10522 10519 10517 10514 10511 10509 10507 10504 10501 10499 10497
10674 10675 10676 10676 10677 10677 10677 10677 10677 10677 10677 10677 10676 10676 10675 10674 10673 10671 10670 10669 10667 10665 10664 10662 10660 10658 10656 10655 10653 10651 10649 10646 10644 10642 10639 10636 10634 10631 10628 10626 10623 10619 10616 10613 10610 10606 10603 10600 10596 10593 10590 10587 10583 10580 10577 10574 10571 10568 10565 10562 10559 10556 10555 10551 10548 10546 10543 10541 10537 10535 10533 10530 10529 10527 10522 10519 10516 10513 10510 10508 10505 10502 10500 10497 10494 10492 10489 10486
10673 10674 10674 10675 10675 10675 10675 10675 10675 10675 10674 10674 10674 10673 10672 10670 10669 10668 10666 10665 10663 10662 10660 10658 10657 10655 10653 10651 10649 10647 10645 10643 10640 10638 10635 10632 10630 10627 10624 10621 10617 10614 10611 10607 10604 10600 10597 10593 10590 10586 10583 10580 10577 10573 10571 10567 10564 10561 10558 10556 10553 10549 10547 10544 10541 10539 10537 10534 10531 10527 10524 10523 10522 10518 10514 10512 10508 10505 10502 10499 10496 10493 10491 10488 10485 10483 10480 10477
10671 10672 10672 10672 10673 10673 10673 10673 10673 10672 10672 10671 10671 10670 10668 10667 10666 10665 10663 10661 10660 10658 10656 10655 10653 10651 10649 10647 10645 10643 10641 10639 10637 10634 10631 10628 10625 10622 10619 10615 10612 10608 10605 10601 10597 10594 10590 10587 10583 10580 10577 10573 10570 10567 10564 10561 10558 10555 10552 10549 10547 10543 10540 10537 10534 10532 10530 10527 10524 10520 10517 10516 10514 10509 10507 10505 10500 10497 10495 10491 10488 10485 10482 10479 10477 10474 10471 10469
10670 10670 10670 10670 10670 10671 10671 10671 10670 10670 10669 10668 10667 10666 10665 10664 10663 10661 10660 10658 10656 10654 10653 10651 10649 10648 10645 10643 10641 10640 10637 10635 10632 10630 10627 10624 10620 10617 10613 10610 10606 10602 10598 10594 10591 10588 10584 10581 10577 10574 10571 10568 10565 10562 10559 10556 10553 10550 10547 10544 10541 10538 10535 10531 10528 10525 10523 10520 10517 10512 10510 10509 10505 10502 10500 10497 10493 10490 10487 10484 10481 10478 10475 10472 10469 10466 10463 10461
10669 10668 10668 10668 10668 10668 10668 10668 10668 10667 10666 10665 10664 10663 10662 10660 10659 10658 10656 10655 10653 10651 10649 10648 10646 10644 10642 10639 10637 10636 10633 10631 10628 10625 10622 10619 10615 10611 10608 10604 10600 10596 10592 10588 10585 10582 10578 10575 10572 10569 10566 10563 10560 10557 10554 10551 10548 10544 10541 10538 10535 10532 10529 10526 10522 10519 10516 10514 10511 10506 10503 10502 10498 10495 10493 10490 10487 10484 10481 10478 10475 10471 10469 10466 10463 10460 10457 10455
10667 10666 10666 10666 10666 10665 10665 10665 10664 10663 10663 10662 10661 10659 10658 10657 10656 10654 10653 10651 10650 10648 10646 10644 10642 10640 10638 10635 10633 10631 10629 10626 10624 10620 10617 10613 10610 10606 10602 10598 10594 10590 10586 10582 10579 10576 10573 10570 10567 10564 10561 10558 10555 10552 10549 10546 10543 10539 10536 10533 10530 10527 10523 10520 10517 10514 10510 10508 10506 10502 10498 10496 10493 10490 10487 10484 10482 10479 10476 10473 10470 10467 10464 10461 10458 10455 10452 10449
10664 10664 10664 10664 10664 10663 10662 10662 10661 10660 10660 10659 10657 10656 10655 10654 10653 10651 10650 10648 10646 10644 10642 10640 10638 10636 10634 10632 10629 10626 10624 10621 10618 10615 10612 10608 10604 10600 10595 10591 10588 10584 10580 10576 10573 10570 10567 10565 10562 10559 10556 10553 10550 10547 10544 10542 10539 10535 10532 10529 10526 10522 10519 10516 10512 10509 10506 10503 10501 10498 10494 10491 10489 10486 10483 10480 10477 10474 10472 10469 10465 10462 10459 10456 10453 10449 10446 10443
10663 10662 10662 10662 10661 10660 10660 10659 10658 10658 10657 10656 10655 10653 10652 10651 10650 10648 10646 10645 10643 10641 10639 10637 10635 10632 10630 10628 10625 10622 10619 10616 10613 10610 10606 10602 10598 10593 10589 10585 10581 10578 10574 10571 10568 10565 10562 10560 10557 10554 10551 10549 10546 10543 10540 10537 10534 10531 10528 10525 10521 10518 10515 10512 10508 10505 10502 10499 10496 10494 10491 10488 10485 10482 10479 10476 10473 10470 10467 10464 10460 10457 10454 10451 10448 10445 10442 10439
10661 10661 10660 10660 10659 10658 10657 10657 10656 10656 10655 10653 10652 10651 10649 10648 10646 10645 10643 10642 10639 10637 10636 10633 10631 10629 10626 10624 10621 10618 10615 10611 10608 10604 10600 10596 10591 10587 10583 10579 10576 10572 10569 10566 10563 10560 10557 10555 10552 10550 10547 10545 10542 10539 10536 10533 10530 10527 10524 10521 10517 10514 10511 10507 10504 10501 10498 10495 10491 10489 10486 10483 10480 10478 10474 10470 10469 10465 10461 10459 10456 10453 10450 10447 10444 10442 10438 10435
10659 10659 10659 10658 10657 10656 10655 10655 10654 10653 10652 10651 10649 10648 10646 10645 10644 10642 10640 10639 10636 10634 10632 10630 10627 10625 10622 10619 10616 10613 10610 10606 10603 10598 10594 10590 10585 10581 10578 10574 10570 10567 10564 10561 10558 10556 10553 10551 10548 10546 10543 10540 10537 10535 10532 10529 10526 10523 10520 10516 10513 10510 10506 10503 10499 10496 10492 10489 10486 10483 10480 10477 10475 10474 10470 10465 10463 10461 10457 10454 10451 10447 10445 10442 10439 10437 10434 10431
10657 10657 10657 10656 10655 10654 10653 10653 10652 10651 10650 10648 10647 10645 10644 10642 10641 10639 10637 10636 10633 10631 10629 10626 10623 10620 10617 10614 10611 10608 10604 10601 10597 10593 10589 10584 10580 10576 10572 10569 10566 10563 10560 10557 10554 10551 10549 10546 10544 10541 10539 10536 10533 10531 10528 10525 10522 10519 10516 10512 10509 10505 10501 10498 10494 10491 10488 10484 10481 10477 10475 10472 10470 10469 10467 10462 10458 10455 10453 10450 10447 10443 10439 10436 10433 10431 10428 10425
10655 10655 10655 10654 10653 10652 10651 10651 10649 10648 10647 10646 10644 10643 10641 10639 10638 10636 10634 10632 10630 10628 10625 10622 10619 10616 10613 10610 10606 10603 10599 10595 10592 10588 10584 10579 10575 10571 10568 10565 10561 10559 10555 10553 10550 10547 10545 10542 10540 10537 10535 10532 10529 10527 10524 10521 10518 10515 10511 10508 10505 10501 10497 10493 10489 10486 10482 10479 10476 10473 10471 10467 10464 10464 10464 10461 10455 10450 10447 10445 10443 10440 10436 10431 10428 10425 10422 10419
10653 10653 10653 10652 10651 10650 10649 10648 10647 10646 10645 10643 10642 10640 10638 10637 10635 10633 10631 10629 10627 10624 10621 10619 10615 10612 10609 10605 10602 10598 10594 10590 10586 10583 10578 10574 10570 10567 10563 10560 10557 10554 10551 10548 10546 10543 10540 10538 10535 10533 10530 10528 10525 10522 10519 10516 10513 10510 10506 10503 10500 10497 10493 10489 10485 10481 10478 10474 10470 10466 10465 10462 10459 10459 10459 10458 10453 10447 10443 10440 10437 10434 10430 10427 10422 10419 10416 10411
10651 10651 10651 10650 10649 10648 10647 10646 10645 10644 10642 10641 10639 10638 10636 10634 10632 10630 10628 10626 10623 10621 10618 10615 10612 10608 10605 10601 10597 10593 10590 10586 10582 10578 10573 10569 10566 10562 10559 10556 10553 10550 10547 10545 10542 10539 10536 10534 10531 10528 10526 10523 10520 10517 10514 10511 10508 10505 10501 10499 10495 10493 10490 10486 10481 10477 10474 10470 10464 10458 10456 10455 10453 10453 10454 10453 10449 10444 10439 10435 10432 10427 10423 10420 10416 10412 10408 10403
10650 10650 10649 10648 10646 10646 10645 10644 10643 10641 10640 10638 10637 10635 10633 10631 10629 10627 10625 10622 10620 10617 10614 10611 10608 10604 10601 10597 10593 10588 10584 10580 10576 10573 10569 10564 10561 10558 10555 10552 10549 10546 10544 10541 10538 10535 10532 10529 10526 10524 10521 10518 10515 10513 10510 10506 10502 10499 10496 10494 10491 10488 10486 10482 10479 10474 10471 10468 10461 10452 10447 10444 10443 10444 10446 10446 10442 10438 10435 10430 10425 10420 10416 10413 10409 10405 10401 10396
10648 10648 10647 10645 10644 10644 10643 10641 10640 10638 10637 10636 10634 10632 10630 10628 10626 10624 10622 10619 10616 10614 10611 10608 10604 10601 10596 10592 10588 10584 10580 10575 10571 10567 10564 10560 10557 10554 10551 10548 10545 10542 10539 10536 10533 10531 10528 10525 10522 10519 10516 10513 10510 10507 10504 10501 10497 10493 10490 10487 10485 10482 10479 10477 10474 10469 10467 10466 10460 10450 10441 10435 10433 10433 10435 10437 10434 10430 10427 10423 10418 10413 10409 10406 10401 10397 10393 10389
10646 10645 10644 10643 10642 10641 10640 10639 10637 10636 10634 10633 10631 10629 10627 10625 10623 10621 10619 10616 10613 10610 10607 10604 10600 10596 10592 10588 10583 10579 10575 10571 10566 10563 10559 10556 10553 10550 10547 10544 10541 10538 10535 10531 10529 10526 10523 10520 10518 10514 10510 10508 10505 10501 10497 10495 10492 10488 10484 10481 10479 10476 10472 10470 10469 10464 10461 10461 10457 10449 10438 10428 10425 10425 10424 10424 10423 10422 10420 10415 10409 10405 10402 10398 10393 10389 10386 10381
10644 10643 10642 10641 10640 10639 10638 10636 10635 10633 10632 10630 10628 10627 10625 10623 10621 10618 10615 10613 10610 10606 10603 10599 10596 10592 10588 10583 10579 10575 10570 10566 10562 10559 10555 10552 10549 10546 10543 10540 10536 10533 10530 10527 10524 10522 10518 10515 10512 10509 10505 10502 10500 10496 10491 10488 10485 10482 10478 10474 10473 10471 10466 10463 10461 10459 10456 10455 10453 10447 10436 10422 10417 10419 10418 10415 10413 10412 10411 10406 10400 10397 10394 10390 10385 10380 10377 10373
10641 10640 10640 10639 10638 10637 10635 10634 10632 10631 10629 10627 10626 10624 10622 10620 10618 10615 10612 10609 10606 10603 10599 10595 10592 10588 10584 10579 10575 10571 10567 10562 10558 10555 10551 10548 10545 10542 10539 10535 10532 10529 10526 10523 10520 10517 10514 10511 10506 10504 10501 10497 10494 10491 10486 10481 10477 10475 10471 10467 10466 10464 10461 10458 10454 10451 10449 10449 10448 10445 10437 10418 10406 10410 10412 10407 10405 10404 10401 10396 10391 10388 10386 10381 10376 10371 10367 10364
10639 10638 10638 10637 10635 10634 10633 10631 10630 10628 10627 10625 10623 10621 10619 10617 10615 10612 10609 10606 10603 10599 10595 10592 10588 10584 10580 10576 10572 10567 10563 10559 10555 10551 10548 10544 10541 10538 10535 10532 10528 10525 10522 10519 10515 10512 10510 10507 10502 10498 10495 10492 10488 10485 10482 10477 10470 10466 10463 10460 10457 10455 10453 10452 10449 10444 10440 10441 10439 10440 10439 10417 10397 10403 10406 10399 10397 10396 10392 10387 10381 10379 10376 10371 10368 10363 10358 10354
10636 10636 10635 10634 10633 10632 10630 10629 10627 10626 10624 10622 10620 10619 10617 10614 10612 10609 10606 10603 10599 10596 10592 10588 10584 10580 10577 10573 10569 10564 10560 10556 10552 10548 10544 10541 10538 10534 10531 10527 10524 10521 10518 10514 10511 10507 10504 10502 10498 10493 10489 10486 10483 10479 10476 10471 10465 10460 10456 10453 10450 10447 10446 10445 10444 10438 10431 10431 10427 10429 10436 10415 10389 10394 10400 10392 10390 10390 10385 10380 10374 10369 10366 10362 10358 10354 10349 10345
10634 10633 10633 10632 10630 10629 10628 10626 10625 10623 10622 10620 10618 10616 10614 10612 10609 10606 10603 10600 10596 10592 10588 10585 10581 10577 10573 10569 10565 10561 10557 10553 10549 10545 10541 10537 10534 10530 10527 10524 10520 10517 10513 10510 10506 10502 10499 10496 10492 10487 10482 10479 10477 10473 10468 10463 10458 10453 10448 10446 10444 10442 10440 10439 10440 10435 10426 10422 10415 10416 10427 10411 10383 10384 10389 10382 10382 10383 10376 10371 10366 10360 10355 10351 10348 10344 10340 10336
10632 10631 10630 10629 10628 10627 10625 10624 10623 10621 10619 10617 10615 10613 10611 10609 10606 10603 10600 10596 10593 10589 10585 10582 10578 10574 10570 10566 10562 10558 10554 10550 10545 10541 10537 10534 10530 10527 10523 10520 10516 10513 10510 10506 10502 10498 10494 10492 10487 10481 10475 10471 10469 10467 10463 10457 10450 10444 10439 10437 10436 10436 10434 10431 10431 10429 10424 10418 10408 10406 10415 10404 10381 10377 10376 10371 10374 10374 10367 10362 10357 10351 10345 10340 10337 10333 10329 10326
10629 10629 10628 10627 10625 10624 10623 10621 10620 10618 10617 10615 10613 10611 10608 10606 10603 10600 10597 10593 10590 10586 10582 10579 10575 10571 10567 10563 10559 10555 10550 10547 10542 10538 10534 10530 10527 10524 10520 10516 10513 10510 10506 10502 10499 10494 10489 10487 10484 10479 10471 10465 10461 10458 10456 10450 10442 10436 10431 10428 10428 10428 10427 10424 10420 10419 10417 10411 10403 10400 10403 10397 10384 10373 10365 10362 10365 10364 10357 10353 10348 10342 10336 10330 10326 10323 10319 10316
10627 10626 10625 10624 10623 10622 10620 10619 10617 10616 10614 10612 10610 10608 10606 10603 10600 10597 10594 10590 10586 10583 10579 10575 10571 10568 10564 10560 10556 10552 10548 10544 10540 10536 10532 10527 10524 10520 10517 10513 10509 10506 10503 10499 10495 10490 10485 10481 10480 10476 10470 10464 10459 10455 10451 10446 10438 10431 10425 10422 10422 10421 10418 10416 10412 10409 10407 10404 10397 10389 10388 10390 10382 10368 10359 10357 10359 10356 10348 10343 10339 10334 10328 10321 10316 10313 10309 10305
10624 10624 10623 10622 10620 10619 10618 10616 10615 10613 10611 10609 10607 10605 10602 10600 10597 10594 10590 10587 10583 10579 10575 10572 10568 10564 10561 10557 10553 10549 10545 10541 10537 10532 10529 10525 10521 10517 10513 10510 10506 10502 10499 10495 10491 10486 10480 10475 10472 10469 10463 10458 10455 10450 10446 10440 10432 10425 10419 10417 10417 10414 10409 10406 10402 10399 10397 10399 10394 10380 10376 10384 10376 10356 10350 10352 10351 10348 10342 10335 10331 10325 10319 10313 10309 10305 10300 10294
10622 10621 10620 10619 10618 10617 10615 10614 10612 10610 10609 10606 10604 10602 10599 10597 10594 10590 10587 10583 10580 10576 10572 10568 10564 10560 10557 10553 10549 10545 10540 10536 10532 10528 10525 10521 10517 10513 10509 10506 10502 10498 10495 10491 10488 10484 10477 10471 10466 10462 10456 10450 10447 10442 10437 10432 10425 10416 10411 10411 10411 10408 10403 10398 10393 10388 10385 10390 10391 10375 10367 10377 10372 10350 10342 10343 10339 10336 10332 10326 10321 10315 10308 10302 10299 10297 10292 10285
10619 10618 10617 10616 10615 10614 10612 10611 10609 10608 10606 10603 10601 10599 10596 10593 10590 10587 10584 10580 10576 10572 10568 10565 10561 10557 10553 10549 10545 10540 10536 10532 10528 10524 10520 10517 10513 10509 10505 10502 10498 10494 10491 10487 10484 10481 10476 10470 10464 10459 10451 10445 10442 10437 10431 10427 10420 10410 10403 10403 10404 10402 10398 10392 10386 10378 10373 10376 10381 10371 10360 10364 10362 10349 10342 10338 10331 10327 10323 10317 10313 10306 10298 10291 10288 10287 10283 10276
10616 10616 10615 10614 10612 10611 10610 10608 10606 10605 10603 10600 10598 10596 10593 10590 10587 10583 10580 10576 10573 10569 10565 10561 10557 10553 10549 10545 10541 10536 10532 10528 10524 10519 10515 10511 10508 10505 10501 10497 10494 10490 10486 10482 10479 10477 10474 10469 10463 10459 10450 10441 10438 10434 10428 10423 10416 10406 10398 10395 10395 10394 10391 10387 10379 10370 10364 10364 10366 10363 10357 10352 10345 10339 10339 10333 10323 10320 10316 10309 10303 10297 10288 10282 10279 10277 10272 10265
10614 10613 10612 10611 10610 10608 10607 10605 10603 10602 10600 10597 10595 10592 10589 10586 10583 10580 10576 10572 10569 10565 10561 10557 10553 10549 10545 10541 10537 10533 10529 10525 10521 10516 10511 10507 10503 10500 10496 10492 10488 10485 10481 10478 10474 10471 10470 10466 10461 10458 10451 10440 10433 10430 10425 10420 10413 10403 10394 10389 10388 10387 10384 10380 10374 10364 10358 10357 10354 10351 10353 10349 10335 10327 10329 10325 10315 10310 10307 10300 10295 10287 10277 10272 10271 10267 10262 10255
10611 10610 10609 10608 10607 10605 10604 10602 10600 10599 10596 10594 10591 10589 10586 10583 10579 10576 10572 10569 10565 10561 10557 10553 10549 10545 10541 10537 10533 10529 10525 10521 10517 10513 10508 10504 10499 10495 10492 10488 10483 10480 10476 10473 10469 10464 10463 10461 10457 10454 10451 10441 10432 10428 10422 10416 10409 10401 10393 10386 10382 10382 10380 10375 10368 10359 10352 10350 10347 10342 10342 10342 10332 10322 10319 10316 10308 10303 10298 10292 10287 10278 10267 10263 10263 10259 10252 10245
10608 10607 10606 10605 10604 10602 10601 10599 10597 10595 10593 10591 10588 10585 10582 10579 10576 10572 10569 10565 10561 10557 10553 10550 10545 10541 10537 10533 10529 10525 10521 10516 10513 10509 10504 10500 10495 10490 10486 10482 10478 10474 10470 10466 10463 10459 10455 10454 10451 10448 10446 10440 10431 10426 10421 10415 10406 10396 10390 10384 10379 10376 10374 10370 10362 10354 10345 10341 10339 10336 10333 10330 10325 10318 10313 10308 10301 10295 10290 10284 10278 10270 10260 10255 10253 10249 10244 10237
10605 10604 10603 10602 10601 10600 10598 10596 10594 10592 10590 10587 10585 10582 10579 10575 10572 10569 10565 10561 10558 10554 10550 10546 10542 10537 10533 10529 10525 10520 10517 10512 10508 10504 10500 10495 10491 10485 10480 10476 10471 10467 10463 10459 10456 10452 10448 10445 10442 10440 10439 10435 10427 10422 10418 10411 10402 10391 10384 10380 10375 10371 10369 10365 10358 10349 10339 10332 10330 10328 10324 10318 10314 10310 10306 10302 10295 10287 10281 10275 10267 10257 10251 10249 10244 10236 10230 10226